Vorticity
50 23 11 23 7 17 -2 20 8 2 9 7 14 6 14 31 10 8 32 27 17 11 13 18 33 33 11 31 39 11 -2 -20 15 1 -8 6 4 9 10 19 11 5 2 6 9 14 11 13 15 8 4 5 7 11
27 37 -15 -10 1 16 18 18 23 23 43 5 17 13 10 9 43 34 29 21 10 16 3 8 -9 8 19 22 11 33 23 16 6 6 25 4 -10 2 14 19 20 13 22 16 19 20 10 11 5 8 13 14 9 6
12 16 21 51 23 -24 10 4 5 -1 7 7 19 11 17 29 27 38 19 19 17 21 5 13 8 12 -11 -46 -17 -8 2 11 14 18 -7 13 8 6 5 4 12 16 14 21 14 11 9 6 7 8 9 6 7 11
23 15 22 6 35 40 26 19 22 22 25 28 14 14 10 12 31 33 19 10 13 18 46 5 21 -1 -0 0 -2 7 -1 9 3 2 -9 -6 -13 3 13 16 16 19 17 5 6 5 9 10 8 7 7 11 11 9
17 16 4 21 26 9 32 3 10 8 15 14 15 10 15 -4 53 20 26 -6 -16 -4 22 19 -10 9 20 -25 14 18 -3 1 19 18 21 17 23 23 23 20 17 14 10 10 10 5 8 9 7 9 6 10 6 7
14 29 23 11 -1 35 24 10 58 -8 4 23 26 -23 24 19 24 5 29 -19 -10 -13 19 10 -7 26 40 22 2 -1 4 15 11 25 38 36 33 19 16 3 10 14 16 12 5 5 5 6 10 9 8 7 4 5
3 7 22 31 12 4 13 22 34 15 40 18 16 18 36 -23 7 38 -1 -7 13 2 -10 -25 41 -12 -14 29 24 17 -7 7 21 -4 -3 5 4 3 0 6 5 1 3 8 8 9 10 7 6 7 4 6 6 8
8 3 2 14 37 13 7 8 9 6 28 15 -8 37 -8 -0 10 43 1 29 -12 -6 7 10 5 -1 1 5 4 -28 10 4 -5 9 -3 15 15 2 9 9 7 8 9 9 8 8 6 6 7 7 8 13 18 20
19 16 6 2 5 32 23 1 32 23 -0 16 21 28 2 41 35 15 14 6 8 2 12 4 12 18 30 26 11 3 2 -8 -4 -0 8 14 5 5 9 10 9 7 7 6 6 7 6 10 16 21 21 17 35 52
7 15 15 18 6 5 13 30 12 7 -4 14 14 2 1 -19 38 35 52 20 7 6 44 -10 9 -3 11 24 24 35 18 4 7 4 9 11 11 7 12 8 9 5 7 9 10 15 26 31 24 27 53 50 32 5
15 12 10 15 14 13 7 8 11 30 23 12 12 14 25 16 -21 -6 -5 28 -8 18 13 13 2 4 8 6 10 8 7 9 12 8 12 7 12 9 8 9 10 11 18 32 41 40 34 39 34 26 15 11 7 0
12 16 17 11 10 14 13 11 9 7 7 14 20 14 19 30 25 26 26 12 20 4 1 10 8 3 5 12 10 9 10 13 7 8 8 7 9 9 10 16 27 32 32 24 19 15 13 9 9 7 5 1 -0 1
12 13 15 16 14 12 11 12 13 11 12 8 6 4 12 12 7 13 8 11 14 18 19 25 20 15 16 13 15 6 11 11 12 11 10 13 17 20 23 30 23 15 10 6 4 1 1 2 3 3 2 5 7 5
11 13 13 13 14 13 13 13 12 12 12 11 10 13 10 10 10 8 12 10 6 7 9 12 9 10 11 15 13 15 8 11 9 9 17 20 19 17 23 14 7 5 3 -0 -0 -2 -3 -1 5 6 4 2 3 5
9 8 9 11 12 12 13 14 13 10 9 10 12 12 12 13 13 9 9 8 9 10 11 13 11 11 10 12 8 14 9 7 14 22 23 16 12 13 19 18 6 6 3 8 4 2 4 9 7 4 4 6 7 4
7 7 6 7 8 8 9 10 11 12 18 22 18 15 8 6 9 13 15 18 22 22 17 13 7 11 12 11 15 10 11 13 17 19 12 8 12 7 6 10 20 20 16 12 10 7 4 5 7 7 4 3 3 3
8 7 7 7 7 6 7 6 8 10 8 15 19 25 25 23 15 11 9 10 9 9 10 13 16 14 18 14 14 13 13 13 12 11 13 11 9 9 15 15 1 2 4 3 7 8 7 4 3 3 1 2 10 15
7 8 8 9 10 10 10 9 10 11 13 12 13 22 22 19 19 20 19 20 16 12 12 11 11 13 14 15 14 13 16 10 12 8 8 7 5 0 5 6 8 9 8 5 4 3 3 2 4 9 14 15 11 9
7 7 6 5 7 5 5 5 10 9 12 12 10 12 16 20 19 15 14 12 12 12 10 10 8 8 7 7 8 12 11 11 11 10 9 8 7 7 7 6 4 3 2 2 4 6 11 16 14 11 9 8 8 9
7 7 7 5 2 6 5 5 3 7 10 13 12 11 9 11 12 14 15 19 21 25 27 31 29 25 24 20 32 -1 13 16 10 9 10 7 5 5 4 2 2 6 10 14 16 14 10 10 11 10 10 11 10 11
9 10 9 7 6 5 3 0 1 2 -1 2 4 10 16 12 10 9 11 11 14 6 7 6 14 19 25 21 22 23 11 2 3 3 4 2 3 7 9 12 16 16 11 11 12 14 13 13 13 12 11 11 11 9
9 8 9 10 10 9 9 6 8 4 8 4 1 1 3 6 10 12 12 11 8 7 5 4 6 8 8 8 6 5 5 5 5 7 9 8 13 18 16 13 15 15 12 10 9 9 11 11 10 11 11 11 9 9
9 8 9 8 9 10 11 10 10 10 10 10 8 7 6 6 7 6 7 7 9 11 11 10 9 8 7 6 7 8 8 8 10 14 18 17 15 14 9 3 1 0 2 3 2 5 6 10 14 15 12 9 9 8
12 13 9 10 10 10 10 10 11 11 12 10 10 8 9 8 8 8 8 7 9 8 9 6 5 9 9 9 8 10 12 14 16 16 12 5 0 -0 1 3 4 6 4 2 6 6 9 13 13 9 8 7 6 8
14 11 15 15 14 14 12 11 12 11 9 11 13 12 12 12 11 7 8 8 9 12 10 10 9 8 7 7 8 9 11 10 7 1 -1 -0 3 3 -2 -3 -2 2 -2 -1 2 7 12 13 10 8 6 7 6 12
10 12 13 14 14 14 13 10 10 11 12 12 13 13 13 14 14 15 12 10 6 5 13 10 7 8 9 9 8 8 9 6 2 -0 -1 -0 0 -1 0 2 2 2 1 1 4 11 15 10 8 7 8 7 22 29
8 14 11 13 11 11 13 9 8 10 13 15 15 11 9 10 11 12 16 16 13 11 10 9 6 5 5 7 8 7 5 3 -0 -1 -1 -0 -2 -1 3 12 8 3 2 4 13 14 10 8 9 5 13 27 24 20
11 10 7 9 8 9 7 5 6 7 9 9 10 12 14 14 12 13 12 12 15 18 20 20 18 14 9 6 6 5 5 5 5 5 4 4 7 15 19 11 5 2 7 15 13 9 8 9 5 21 28 21 29 36
13 14 10 11 12 13 12 9 7 6 3 3 3 6 8 9 12 20 19 17 17 14 14 15 15 16 18 17 17 17 16 15 14 16 21 26 21 13 6 4 6 13 15 10 9 10 8 8 27 25 21 36 36 29
15 10 10 12 14 15 12 10 7 4 4 6 5 7 11 12 13 15 6 7 10 11 11 12 12 15 17 21 23 24 25 25 22 16 11 9 8 9 11 15 15 10 9 9 10 7 18 30 22 28 40 29 23 18
14 14 15 15 16 16 10 7 5 5 5 6 5 12 13 13 16 12 2 7 9 5 7 12 13 12 11 14 16 16 14 13 12 11 8 8 11 14 14 10 8 9 8 8 10 26 26 22 36 36 23 19 17 13
9 12 17 14 10 6 4 5 4 7 7 10 11 10 10 11 11 7 7 12 8 11 13 11 11 12 13 15 14 15 10 7 6 8 10 14 14 11 8 9 10 9 9 18 27 21 27 42 27 19 17 17 15 14
15 8 8 10 15 15 12 13 10 11 10 8 8 10 9 11 11 13 13 13 12 11 11 12 12 16 13 10 13 4 1 3 7 12 15 11 9 11 9 9 8 10 22 22 22 34 42 20 17 16 17 16 17 17
Height
5266 5267 5267 5268 5271 5274 5277 5282 5288 5295 5301 5308 5316 5323 5329 5336 5346 5351 5370 5386 5403 5417 5432 5445 5456 5468 5481 5489 5500 5512 5518 5521 5527 5530 5533 5537 5540 5544 5549 5553 5557 5560 5560 5564 5565 5566 5569 5571 5574 5579 5576 5576 5576 5573
5275 5273 5273 5274 5275 5278 5281 5285 5288 5294 5300 5306 5313 5320 5327 5334 5339 5348 5363 5381 5397 5414 5427 5441 5453 5464 5470 5477 5489 5496 5503 5510 5515 5519 5522 5526 5529 5531 5535 5538 5544 5546 5550 5551 5555 5555 5556 5557 5561 5559 5561 5560 5560 5559
5281 5278 5276 5272 5274 5277 5282 5286 5291 5295 5301 5306 5312 5318 5325 5331 5337 5346 5361 5379 5396 5410 5423 5433 5443 5454 5464 5469 5474 5481 5490 5498 5504 5508 5512 5513 5516 5520 5522 5527 5530 5533 5536 5537 5540 5543 5544 5544 5544 5548 5547 5544 5543 5541
5285 5283 5280 5277 5274 5277 5281 5286 5291 5295 5299 5303 5309 5317 5324 5330 5338 5348 5361 5378 5395 5411 5419 5428 5437 5444 5454 5460 5464 5475 5482 5487 5493 5496 5499 5502 5506 5509 5512 5513 5517 5521 5523 5526 5528 5531 5531 5531 5530 5532 5532 5530 5527 5525
5290 5287 5286 5284 5282 5281 5283 5287 5291 5296 5300 5305 5310 5318 5325 5333 5341 5350 5362 5376 5391 5405 5409 5419 5427 5434 5443 5453 5458 5468 5472 5478 5482 5485 5487 5489 5493 5496 5500 5502 5506 5510 5513 5515 5516 5516 5518 5518 5517 5516 5515 5517 5514 5508
5295 5291 5290 5288 5288 5287 5286 5289 5292 5297 5301 5306 5312 5318 5324 5332 5341 5350 5360 5371 5387 5397 5405 5411 5417 5427 5437 5444 5450 5456 5463 5468 5471 5474 5477 5479 5484 5490 5491 5494 5496 5497 5502 5502 5502 5502 5503 5501 5500 5501 5501 5498 5497 5494
5300 5297 5295 5292 5292 5292 5293 5293 5294 5298 5301 5305 5309 5318 5322 5328 5340 5353 5361 5373 5381 5391 5398 5406 5410 5420 5428 5434 5444 5452 5455 5460 5461 5465 5468 5473 5478 5480 5481 5483 5484 5484 5486 5489 5488 5486 5489 5488 5486 5487 5485 5482 5479 5476
5302 5301 5300 5299 5298 5298 5299 5299 5300 5301 5304 5309 5314 5320 5327 5335 5344 5353 5362 5371 5382 5387 5393 5399 5408 5417 5422 5428 5437 5443 5447 5450 5453 5456 5460 5465 5467 5468 5472 5472 5471 5472 5475 5476 5476 5475 5475 5474 5473 5472 5471 5466 5462 5458
5301 5302 5303 5303 5303 5304 5305 5307 5308 5310 5314 5315 5321 5325 5331 5335 5342 5348 5359 5367 5374 5383 5387 5395 5404 5408 5414 5419 5425 5431 5437 5442 5444 5445 5450 5456 5456 5458 5461 5459 5459 5457 5463 5467 5464 5462 5462 5461 5459 5455 5453 5449 5447 5445
5303 5303 5302 5303 5306 5307 5308 5310 5313 5316 5319 5321 5324 5327 5331 5335 5342 5347 5354 5359 5367 5375 5383 5389 5397 5403 5409 5413 5419 5423 5427 5430 5433 5435 5441 5444 5446 5447 5448 5446 5448 5450 5451 5452 5450 5448 5446 5446 5443 5441 5439 5438 5438 5439
5304 5304 5304 5304 5306 5308 5309 5311 5314 5317 5321 5324 5329 5332 5336 5341 5345 5350 5355 5362 5367 5372 5378 5384 5390 5395 5399 5406 5409 5413 5416 5419 5421 5426 5430 5431 5435 5435 5434 5434 5436 5436 5435 5434 5433 5432 5432 5433 5433 5432 5432 5435 5436 5436
5305 5305 5305 5305 5306 5308 5310 5313 5315 5318 5321 5324 5329 5332 5336 5340 5344 5349 5354 5358 5363 5369 5374 5379 5384 5389 5392 5397 5399 5403 5406 5409 5411 5418 5418 5421 5421 5420 5421 5422 5423 5423 5423 5424 5424 5425 5426 5428 5429 5429 5430 5432 5432 5430
5306 5306 5307 5308 5308 5308 5310 5312 5314 5317 5320 5324 5328 5331 5334 5339 5342 5347 5350 5356 5361 5365 5371 5376 5381 5384 5388 5392 5395 5398 5399 5401 5405 5406 5408 5409 5409 5409 5411 5412 5414 5416 5417 5417 5418 5420 5421 5422 5423 5423 5423 5424 5422 5421
5308 5307 5308 5309 5311 5312 5312 5314 5316 5318 5321 5323 5325 5329 5332 5335 5339 5343 5347 5352 5355 5360 5364 5368 5372 5376 5380 5384 5386 5389 5391 5393 5394 5396 5398 5397 5399 5401 5403 5406 5408 5410 5411 5412 5413 5413 5414 5414 5415 5415 5416 5414 5413 5412
5311 5309 5310 5311 5312 5313 5314 5316 5317 5319 5321 5323 5325 5328 5331 5334 5337 5339 5342 5345 5349 5353 5357 5361 5365 5369 5372 5374 5377 5380 5382 5383 5386 5389 5390 5390 5391 5395 5397 5400 5401 5402 5404 5404 5405 5406 5406 5407 5408 5408 5407 5405 5402 5398
5313 5313 5312 5313 5314 5315 5316 5317 5318 5319 5320 5321 5323 5326 5329 5331 5334 5337 5339 5341 5345 5348 5351 5355 5358 5361 5364 5367 5371 5373 5376 5379 5382 5384 5385 5386 5388 5390 5391 5393 5395 5395 5395 5397 5399 5399 5399 5399 5398 5397 5394 5390 5386 5382
5314 5315 5315 5316 5316 5317 5318 5319 5320 5320 5321 5321 5321 5322 5324 5327 5330 5333 5336 5339 5342 5345 5348 5351 5354 5356 5360 5363 5366 5369 5373 5376 5378 5380 5381 5382 5385 5386 5387 5388 5389 5391 5392 5392 5392 5391 5389 5387 5386 5382 5378 5374 5369 5364
5314 5316 5317 5318 5319 5319 5320 5320 5321 5322 5322 5322 5322 5323 5324 5325 5328 5330 5333 5336 5339 5341 5343 5346 5349 5353 5357 5360 5362 5366 5369 5371 5373 5375 5377 5378 5380 5381 5382 5383 5384 5383 5383 5383 5380 5378 5376 5373 5370 5365 5361 5358 5354 5348
5311 5315 5317 5319 5320 5320 5321 5322 5322 5323 5323 5324 5324 5325 5326 5326 5328 5329 5331 5333 5335 5337 5340 5343 5346 5350 5353 5355 5359 5362 5364 5367 5369 5371 5373 5374 5375 5375 5375 5375 5376 5374 5372 5370 5368 5365 5361 5358 5354 5351 5347 5343 5337 5332
5308 5312 5315 5317 5319 5321 5322 5323 5324 5325 5325 5326 5326 5327 5328 5329 5330 5331 5332 5333 5334 5336 5337 5339 5341 5343 5347 5350 5355 5358 5360 5362 5364 5366 5367 5367 5368 5368 5367 5367 5365 5363 5361 5359 5356 5352 5349 5344 5339 5336 5332 5328 5322 5317
5305 5307 5311 5314 5317 5319 5322 5323 5325 5326 5327 5328 5328 5328 5329 5330 5331 5332 5333 5334 5336 5336 5337 5339 5340 5343 5345 5348 5350 5353 5356 5358 5359 5359 5360 5360 5361 5360 5359 5358 5355 5352 5349 5346 5343 5339 5336 5331 5326 5322 5316 5311 5305 5298
5299 5303 5307 5310 5313 5316 5319 5321 5323 5324 5326 5328 5329 5329 5330 5331 5332 5333 5334 5335 5336 5337 5338 5340 5341 5343 5345 5347 5348 5349 5351 5351 5351 5352 5352 5351 5351 5350 5348 5347 5345 5342 5340 5336 5332 5328 5323 5317 5311 5304 5298 5292 5285 5278
5294 5298 5302 5305 5308 5311 5315 5317 5319 5320 5322 5324 5326 5328 5329 5330 5331 5332 5333 5333 5334 5336 5337 5339 5340 5340 5341 5342 5343 5344 5345 5345 5345 5345 5345 5344 5343 5342 5340 5338 5336 5333 5330 5325 5320 5313 5307 5301 5294 5288 5280 5273 5265 5256
5289 5293 5297 5300 5304 5307 5309 5311 5314 5316 5318 5319 5322 5323 5326 5327 5329 5330 5331 5330 5330 5332 5334 5335 5335 5336 5337 5337 5338 5338 5338 5338 5338 5338 5337 5336 5335 5334 5331 5328 5325 5321 5317 5312 5306 5298 5291 5283 5275 5268 5260 5251 5243 5233
5285 5289 5294 5296 5299 5302 5304 5306 5308 5311 5313 5315 5317 5319 5321 5322 5324 5326 5326 5326 5328 5329 5330 5330 5331 5331 5331 5332 5332 5333 5332 5331 5331 5330 5331 5328 5326 5323 5320 5316 5312 5308 5303 5298 5290 5282 5274 5266 5258 5249 5240 5230 5219 5209
5280 5284 5289 5293 5295 5297 5299 5301 5304 5306 5309 5311 5313 5315 5316 5317 5319 5320 5320 5321 5323 5324 5325 5325 5326 5326 5326 5326 5326 5326 5325 5324 5323 5321 5321 5318 5316 5312 5308 5303 5298 5292 5288 5280 5272 5264 5256 5248 5239 5230 5219 5208 5196 5184
5276 5282 5286 5288 5290 5292 5295 5297 5300 5302 5305 5307 5308 5309 5310 5312 5313 5315 5315 5316 5316 5318 5319 5319 5320 5319 5319 5319 5318 5317 5317 5316 5314 5312 5309 5307 5304 5300 5296 5290 5284 5278 5271 5264 5255 5247 5238 5229 5219 5208 5198 5187 5175 5166
5275 5279 5283 5284 5286 5289 5292 5294 5296 5298 5300 5301 5303 5304 5305 5307 5309 5310 5310 5310 5311 5311 5310 5310 5311 5310 5310 5310 5308 5307 5305 5304 5302 5300 5297 5294 5291 5287 5282 5275 5270 5263 5255 5247 5238 5229 5219 5209 5199 5189 5178 5169 5160 5151
5272 5275 5277 5280 5283 5285 5288 5290 5291 5293 5294 5296 5298 5299 5301 5303 5303 5304 5305 5305 5304 5304 5304 5303 5302 5301 5300 5299 5297 5296 5295 5293 5290 5287 5284 5281 5278 5274 5269 5262 5255 5248 5240 5232 5222 5212 5202 5192 5181 5171 5162 5154 5146 5140
5267 5270 5273 5276 5279 5282 5283 5284 5286 5287 5288 5290 5292 5294 5296 5297 5298 5299 5299 5299 5299 5298 5297 5297 5295 5294 5292 5290 5288 5286 5284 5281 5279 5276 5272 5269 5264 5258 5253 5247 5240 5232 5224 5215 5206 5195 5185 5174 5165 5155 5147 5141 5135 5131
5262 5266 5269 5272 5274 5276 5277 5278 5279 5281 5283 5285 5287 5288 5290 5292 5293 5293 5293 5292 5291 5290 5289 5288 5287 5285 5283 5282 5279 5277 5274 5272 5269 5265 5260 5255 5250 5244 5238 5231 5224 5216 5207 5198 5188 5178 5168 5159 5150 5143 5138 5132 5128 5124
5258 5261 5264 5266 5268 5270 5271 5272 5274 5276 5279 5280 5282 5283 5284 5284 5287 5288 5286 5285 5285 5284 5283 5282 5280 5277 5275 5273 5271 5269 5266 5263 5259 5254 5249 5243 5238 5231 5225 5218 5210 5201 5192 5182 5171 5162 5154 5146 5140 5135 5131 5126 5122 5118
5253 5255 5257 5259 5262 5265 5267 5268 5269 5271 5273 5275 5276 5277 5278 5279 5280 5281 5280 5279 5279 5278 5276 5274 5272 5270 5268 5266 5263 5260 5257 5253 5248 5242 5236 5231 5225 5219 5212 5204 5195 5186 5176 5166 5157 5149 5142 5137 5133 5129 5125 5121 5117 5113